Tracking 34151 objects as of 20-May-2026
HD Live streaming from Space Station
objects crossing your sky now

SL-16 DEB

Track SL-16 DEB now!
10-day predictions


NORAD ID: 16391
Int'l Code: 1985-097E
Perigee: 840.6 km
Apogee: 1,121.3 km
Inclination: 71.0 °
Period: 104.6 minutes
Semi major axis: 7351 km
RCS: 0.086 m2 (small)
Launch date: October 22, 1985
Source: Commonwealth of Independent States (former USSR) (CIS)
Launch site: TYURATAM MISSILE AND SPACE COMPLEX (TTMTR)

Note: This is SATELLITE DEBRIS
Your satellite tracking list
Your tracking list is empty




NASA's NSSDC Master Catalog

Two Line Element Set (TLE):
1 16391U 85097E   26140.49625294  .00000030  00000-0  65726-4 0  9996
2 16391  70.9932 188.6601 0190937 240.5594 185.3952 13.77206313 38007
Source of the keplerian elements: AFSPC